Regional Weather Roundup
Issued by NWS

Home | Current Version | Previous Version | Text Only | Print | Product List | Glossary Off
Versions: 1 2 3 4 5 6 7 8 9 10 11 12 13 14 15 16 17 18 19 20 21 22 23 24 25 26 27 28 29 30 31 32 33 34 35 36 37 38 39 40 41 42 43 44 45 46 47 48 49 50

000
ASUS43 KDTX 291410
RWRMI
MICHIGAN HOURLY REGIONAL WEATHER ROUNDUP
NATIONAL WEATHER SERVICE DETROIT/PONTIAC MI
1000 AM EDT SAT AUG 29 2015

NOTE: "FAIR" INDICATES FEW OR NO CLOUDS BELOW 12,000 FEET WITH NO
SIGNIFICANT WEATHER AND/OR OBSTRUCTION TO VISIBILITY.

MIZ047>049-052>055-059>063-066>070-074>076-081>083-291500-
SOUTHEAST LOWER MICHIGAN

CITY           SKY/WX    TMP DP  RH WIND       PRES   REMARKS
ADRIAN         PTSUNNY   67  60  78 S5        30.14F
ALMA           LGT RAIN  62  61  97 E5        30.13F
ANN ARBOR      CLOUDY    69  60  73 MISG      30.13F
BAD AXE        CLOUDY    62  60  91 NE3       30.14F
CARO           LGT RAIN  62  61  97 CALM      30.14F
DETROIT CITY   PTSUNNY   71  63  75 CALM      30.14F
DETROIT        PTSUNNY   69  62  78 SE3       30.14F
FLINT          CLOUDY    68  62  81 E6        30.14F
GROSSE ILE     PTSUNNY   72  64  78 SE3       30.13S
HILLSDALE      CLOUDY    68  63  84 S3        30.13F
HOWELL         CLOUDY    67  62  84 CALM      30.14S

CITY           SKY/WX    TMP DP  RH WIND       PRES   REMARKS
JACKSON        CLOUDY    67  60  78 S5        30.13F
LAMBERTVILLE   CLOUDY    70  60  70 S3        30.14S
LANSING        LGT RAIN  64  62  93 SE6       30.12F FOG
LAPEER         FAIR      64  63  97 CALM      30.15F FOG
MASON          CLOUDY    66  60  80 CALM      30.13F
MONROE         PTSUNNY   70  60  70 CALM      30.13F
MT. CLEMENS    PTSUNNY   68  63  85 E5        30.13F
PONTIAC        CLOUDY    67  62  84 E5        30.14F
PORT HOPE        N/A     65  59  81 CALM      30.12F
PORT HURON     CLOUDY    66  63  88 CALM      30.16S
TRI CITIES     LGT RAIN  63  60  90 SE7       30.14F FOG
MIDLAND        DRIZZLE   63  60  91 CALM      30.13S
TROY           PTSUNNY   68  64  85 NE6       30.16F
SAGINAW HB     LGT RAIN  61  61 100 CALM      30.14S
$$
MIZ043>046-050>051-056>058-064>065-071>073-077>080-291500-
SOUTHWEST LOWER MICHIGAN

CITY           SKY/WX    TMP DP  RH WIND       PRES   REMARKS
BATTLE CREEK   LGT RAIN  64  60  87 CALM      30.12S
BENTON HARBOR  RAIN      63  62  97 E3        30.09F FOG
BIG RAPIDS     CLOUDY    60  58  94 CALM      30.12F
COLDWATER      CLOUDY    66  62  85 SE3       30.12S
FREMONT        CLOUDY    61  61 100 SE5       30.11S
HOLLAND        LGT RAIN  64  62  93 SE3       30.11F FOG
GRAND RAPIDS   RAIN      63  62  97 E3        30.12S FOG
IONIA          LGT RAIN  63  63  99 CALM      30.12S
KALAMAZOO      RAIN      63  61  93 CALM      30.12S FOG
LUDINGTON      CLOUDY    62  60  91 E6        30.09F
MARSHALL       CLOUDY    65  59  81 SE5       30.11F
MOUNT PLEASANT LGT RAIN  62  60  92 CALM      30.12F
MUSKEGON       LGT RAIN  62  58  86 E5        30.10F FOG
SOUTH HAVEN    RAIN      63  61  93 CALM      30.10S
$$
MIZ016>042-291500-
NORTHERN LOWER MICHIGAN

CITY           SKY/WX    TMP DP  RH WIND       PRES   REMARKS
ALPENA         LGT RAIN  62  60  93 SW5       30.13F
BEAVER ISLAND  CLOUDY    63  60  91 SW7       30.09S
BELLAIRE       CLOUDY    62  60  93 CALM      30.10F
CADILLAC       CLOUDY    60  58  96 E5        30.12F
CHARLEVOIX     CLOUDY    62  61  97 SW6       30.13F
FRANKFORT      CLOUDY    60  60  97 SE6       30.09F
GAYLORD        CLOUDY    61  60  97 CALM      30.11F
GRAYLING       CLOUDY    58  56  95 S3        30.14S
HARBOR SPRINGS CLOUDY    62  60  93 CALM      30.11F
HOUGHTON LAKE  CLOUDY    59  56  89 CALM      30.14S
MANISTEE       CLOUDY    61  55  82 E3        30.10F
OSCODA         CLOUDY    63  58  84 N5        30.11F
PELLSTON       CLOUDY    63  59  87 W5        30.11F
ROGERS CITY    DRIZZLE   62  60  93 SW9       30.12S
TRAVERSE CITY  CLOUDY    63  60  90 SE3       30.09F FOG
$$
MIZ007>008-015-291500-
EASTERN UPPER MICHIGAN

CITY           SKY/WX    TMP DP  RH WIND       PRES   REMARKS
KINROSS        CLOUDY    63  61  94 SW6       30.08S
MACKINAC ISLAN CLOUDY    64  60  88 SW8G16    30.09S
NEWBERRY       CLOUDY    63  58  83 SW12G18   30.06S
S. S. MARIE    CLOUDY    63  58  83 SW7       30.06S
MUNISING         N/A     67  57  70 VRB6      30.04F
$$
MIZ004>006-011>014-085-291500-
CENTRAL UPPER MICHIGAN

CITY           SKY/WX    TMP DP  RH WIND       PRES   REMARKS
MANISTIQUE     PTSUNNY   62  58  87 SW5       30.07R
ESCANABA       MOSUNNY   63  57  82 S9        30.05F
MENOMINEE      CLOUDY    59  55  88 CALM      30.07F
SAWYER-GWINN   PTSUNNY   64  55  72 SW10      30.05S
$$
MIZ001>003-009>011-084-291500-
WESTERN UPPER MICHIGAN

CITY           SKY/WX    TMP DP  RH WIND       PRES   REMARKS
IRON MOUNTAIN  MOSUNNY   63  57  81 SW9       30.05R
HOUGHTON       MOSUNNY   64  57  78 W8        30.02S
COPPER HARBOR    N/A     66  57  72 VRB3      30.00S
IRONWOOD       MOSUNNY   63  57  82 SW6       30.02R
$$

ABBREVIATIONS USED IN REMARKS
   TC - TEMPERATURE IN CELSIUS
  WCI - WIND CHILL INDEX
   HX - HEAT INDEX
  VSB - VISIBILITY




USA.gov is the U.S. government's official web portal to all federal, state and local government web resources and services.